Bar Harbor, ME

12:39 PM EDT on April 29, 2017 (GMT -0400)
Hancock County-Bar Harbor

Weather History for KBHB - April, 2013

Change the Weather History Date:

Tuesday, April 2, 2013

  Actual Average Record
Temperature  
Mean Temperature 32 °F -  
Max Temperature 37 °F 47 °F 63 °F (1963)
Min Temperature 26 °F 31 °F 11 °F (1964)
Degree Days  
Heating Degree Days 34    
Moisture  
Dew Point 15 °F    
Average Humidity 52    
Maximum Humidity 93    
Minimum Humidity 33    
Precipitation  
Precipitation 0.00 in - - ()
Sea Level Pressure  
Sea Level Pressure 29.72 in    
Wind  
Wind Speed 8 mph (West)    
Max Wind Speed 16 mph    
Max Gust Speed 28 mph    
Visibility 10 miles    
Events      
Averages and records for this station are not official NWS values.
T = Trace of Precipitation, MM = Missing Value Source: NWS Daily Summary

Daily Weather History Graph

Daily Weather History Graph

Search for Another Location

Airport or City:

Trip Planner

Search our weather history database for the weather conditions in past years. The results will help you decide how hot, cold, wet, or windy it might be!

Date:

Astronomy

Apr. 02, 2013 Rise Set
Actual Time 6:12 AM EDT 7:02 PM EDT
Civil Twilight 5:42 AM EDT 7:31 PM EDT
Nautical Twilight 5:07 AM EDT 8:06 PM EDT
Astronomical Twilight 4:31 AM EDT 8:43 PM EDT
Moon 1:13 AM EDT (4/2) 10:49 AM EDT (4/2)
Length of Visible Light 13h 48m
Length of Day
12h 50m
Waning Gibbous, 56% of the Moon is Illuminated
Apr 2
Waning Gibbous
Apr 3
Last Quarter
Apr 10
New
Apr 18
First Quarter
Apr 25
Full

Hourly Weather History & Observations

Time (EDT) Temp. Windchill Dew Point Humidity Pressure Visibility Wind Dir Wind Speed Gust Speed Precip Events Conditions
12:15 AM 33.8 °F 28.6 °F 30.2 °F 87% 29.61 in 10.0 mi WNW 5.8 mph - N/A   Mostly Cloudy
12:35 AM 33.8 °F 27.0 °F 28.4 °F 81% 29.63 in 10.0 mi WNW 8.1 mph - N/A   Mostly Cloudy
12:55 AM 33.8 °F 27.0 °F 26.6 °F 75% 29.65 in 10.0 mi WNW 8.1 mph - N/A   Partly Cloudy
1:15 AM 32.0 °F 26.4 °F 26.6 °F 80% 29.65 in 10.0 mi WNW 5.8 mph - N/A   Clear
1:35 AM 32.0 °F 27.5 °F 28.4 °F 87% 29.67 in 10.0 mi West 4.6 mph - N/A   Clear
1:55 AM 30.2 °F 25.4 °F 28.4 °F 93% 29.68 in 10.0 mi WSW 4.6 mph - N/A   Clear
2:15 AM 30.2 °F 26.7 °F 26.6 °F 86% 29.68 in 10.0 mi WSW 3.5 mph - N/A   Clear
2:55 AM 30.2 °F 23.4 °F 24.8 °F 80% 29.68 in 10.0 mi West 6.9 mph - N/A   Clear
3:15 AM 30.2 °F 21.3 °F 21.2 °F 69% 29.68 in 10.0 mi West 10.4 mph - N/A   Clear
3:35 AM 30.2 °F 22.6 °F 21.2 °F 69% 29.69 in 10.0 mi West 8.1 mph - N/A   Clear
3:55 AM 28.4 °F 24.6 °F 21.2 °F 74% 29.69 in 10.0 mi West 3.5 mph - N/A   Clear
4:15 AM 28.4 °F 23.3 °F 21.2 °F 74% 29.70 in 10.0 mi West 4.6 mph - N/A   Clear
4:35 AM 28.4 °F 24.6 °F 21.2 °F 74% 29.70 in 10.0 mi West 3.5 mph - N/A   Clear
4:55 AM 28.4 °F 21.2 °F 17.6 °F 64% 29.71 in 10.0 mi West 6.9 mph - N/A   Clear
5:15 AM 28.4 °F 16.6 °F 15.8 °F 59% 29.71 in 10.0 mi West 16.1 mph 21.9 mph N/A   Clear
5:35 AM 28.4 °F 18.5 °F 15.8 °F 59% 29.72 in 10.0 mi West 11.5 mph 19.6 mph N/A   Clear
5:55 AM 28.4 °F 22.2 °F 15.8 °F 59% 29.72 in 10.0 mi West 5.8 mph 18.4 mph N/A   Clear
6:15 AM 26.6 °F 22.6 °F 15.8 °F 64% 29.73 in 10.0 mi West 3.5 mph - N/A   Clear
6:35 AM 26.6 °F 18.2 °F 15.8 °F 64% 29.74 in 10.0 mi West 8.1 mph - N/A   Clear
6:55 AM 28.4 °F 23.3 °F 14.0 °F 55% 29.74 in 10.0 mi West 4.6 mph - N/A   Clear
7:15 AM 28.4 °F 19.1 °F 14.0 °F 55% 29.75 in 10.0 mi West 10.4 mph - N/A   Clear
7:35 AM 28.4 °F 19.7 °F 15.8 °F 59% 29.75 in 10.0 mi West 9.2 mph 17.3 mph N/A   Clear
7:55 AM 28.4 °F 19.1 °F 14.0 °F 55% 29.75 in 10.0 mi West 10.4 mph 16.1 mph N/A   Clear
8:15 AM 28.4 °F 18.0 °F 12.2 °F 51% 29.75 in 10.0 mi West 12.7 mph 20.7 mph N/A   Clear
8:35 AM 30.2 °F 20.2 °F 12.2 °F 47% 29.75 in 10.0 mi WNW 12.7 mph 18.4 mph N/A   Clear
8:55 AM 30.2 °F 19.8 °F 12.2 °F 47% 29.76 in 10.0 mi West 13.8 mph 20.7 mph N/A   Clear
9:15 AM 30.2 °F 20.8 °F 12.2 °F 47% 29.76 in 10.0 mi West 11.5 mph 18.4 mph N/A   Clear
9:35 AM 30.2 °F 20.2 °F 10.4 °F 44% 29.75 in 10.0 mi West 12.7 mph 19.6 mph N/A   Clear
9:55 AM 30.2 °F 23.4 °F 12.2 °F 47% 29.75 in 10.0 mi West 6.9 mph 26.5 mph N/A   Clear
10:35 AM 33.8 °F 23.5 °F 8.6 °F 35% 29.75 in 10.0 mi WSW 16.1 mph 25.3 mph N/A   Mostly Cloudy
10:55 AM 32.0 °F 22.1 °F 10.4 °F 41% 29.75 in 10.0 mi West 13.8 mph 23.0 mph N/A   Mostly Cloudy
11:15 AM 33.8 °F 24.3 °F 8.6 °F 35% 29.74 in 10.0 mi WSW 13.8 mph 26.5 mph N/A   Mostly Cloudy
11:35 AM 32.0 °F 24.2 °F 8.6 °F 38% 29.73 in 10.0 mi West 9.2 mph 19.6 mph N/A   Mostly Cloudy
11:55 AM 33.8 °F 27.7 °F 8.6 °F 35% 29.73 in 10.0 mi West 6.9 mph 23.0 mph N/A   Mostly Cloudy
12:15 PM 33.8 °F 24.3 °F 8.6 °F 35% 29.72 in 10.0 mi West 13.8 mph 24.2 mph N/A   Overcast
12:35 PM 33.8 °F 25.3 °F 8.6 °F 35% 29.72 in 10.0 mi West 11.5 mph 20.7 mph N/A   Mostly Cloudy
12:55 PM 33.8 °F 26.4 °F 8.6 °F 35% 29.72 in 10.0 mi WSW 9.2 mph 19.6 mph N/A   Scattered Clouds
1:15 PM 35.6 °F 27.5 °F 8.6 °F 33% 29.71 in 10.0 mi West 11.5 mph 20.7 mph N/A   Mostly Cloudy
1:35 PM 35.6 °F 27.5 °F 8.6 °F 33% 29.70 in 10.0 mi West 11.5 mph 27.6 mph N/A   Mostly Cloudy
1:55 PM 33.8 °F 27.0 °F 8.6 °F 35% 29.70 in 10.0 mi West 8.1 mph 23.0 mph N/A   Mostly Cloudy
2:15 PM 35.6 °F 29.9 °F 10.4 °F 35% 29.70 in 10.0 mi WSW 6.9 mph 18.4 mph N/A   Overcast
2:35 PM 35.6 °F 26.2 °F 10.4 °F 35% 29.70 in 10.0 mi WSW 15.0 mph 21.9 mph N/A   Overcast
2:55 PM 35.6 °F 27.1 °F 8.6 °F 33% 29.69 in 10.0 mi WSW 12.7 mph 21.9 mph N/A   Overcast
3:15 PM 37.4 °F 28.9 °F 10.4 °F 33% 29.69 in 10.0 mi SW 13.8 mph 26.5 mph N/A   Overcast
3:35 PM 35.6 °F 28.6 °F 10.4 °F 35% 29.69 in 10.0 mi WSW 9.2 mph 20.7 mph N/A   Overcast
3:55 PM 35.6 °F 26.6 °F 10.4 °F 35% 29.69 in 10.0 mi WSW 13.8 mph 25.3 mph N/A   Mostly Cloudy
4:15 PM 35.6 °F 27.5 °F 8.6 °F 33% 29.68 in 10.0 mi WSW 11.5 mph 21.9 mph N/A   Mostly Cloudy
4:35 PM 35.6 °F 28.6 °F 8.6 °F 33% 29.69 in 10.0 mi WSW 9.2 mph 24.2 mph N/A   Mostly Cloudy
4:55 PM 35.6 °F 27.1 °F 8.6 °F 33% 29.69 in 10.0 mi West 12.7 mph 20.7 mph N/A   Mostly Cloudy
5:16 PM 35.6 °F 27.5 °F 8.6 °F 33% 29.69 in 10.0 mi West 11.5 mph - N/A   Mostly Cloudy
5:35 PM 33.8 °F 26.4 °F 8.6 °F 35% 29.70 in 10.0 mi West 9.2 mph - N/A   Overcast
5:55 PM 33.8 °F 27.0 °F 10.4 °F 38% 29.71 in 10.0 mi West 8.1 mph - N/A   Overcast
6:15 PM 33.8 °F 27.7 °F 10.4 °F 38% 29.71 in 10.0 mi West 6.9 mph 17.3 mph N/A   Overcast
6:35 PM 33.8 °F 25.8 °F 12.2 °F 41% 29.72 in 10.0 mi WSW 10.4 mph 20.7 mph N/A   Mostly Cloudy
6:55 PM 33.8 °F 30.8 °F 12.2 °F 41% 29.72 in 10.0 mi WSW 3.5 mph - N/A   Mostly Cloudy
7:15 PM 33.8 °F 28.6 °F 12.2 °F 41% 29.72 in 10.0 mi West 5.8 mph - N/A   Overcast
7:35 PM 33.8 °F 27.7 °F 10.4 °F 38% 29.73 in 10.0 mi West 6.9 mph - N/A   Overcast
7:56 PM 32.0 °F 26.4 °F 12.2 °F 44% 29.74 in 10.0 mi West 5.8 mph - N/A   Mostly Cloudy
8:15 PM 32.0 °F 25.6 °F 15.8 °F 51% 29.75 in 10.0 mi NW 6.9 mph - N/A   Mostly Cloudy
8:35 PM 30.2 °F 25.4 °F 17.6 °F 60% 29.76 in 10.0 mi West 4.6 mph - N/A   Mostly Cloudy
8:55 PM 30.2 °F 25.4 °F 19.4 °F 64% 29.76 in 10.0 mi West 4.6 mph - N/A   Scattered Clouds
9:15 PM 30.2 °F 25.4 °F 17.6 °F 60% 29.77 in 10.0 mi West 4.6 mph - N/A   Partly Cloudy
9:35 PM 30.2 °F 26.7 °F 17.6 °F 60% 29.77 in 10.0 mi West 3.5 mph - N/A   Partly Cloudy
9:55 PM 30.2 °F 24.3 °F 17.6 °F 60% 29.77 in 10.0 mi WSW 5.8 mph - N/A   Clear
10:15 PM 30.2 °F 24.3 °F 15.8 °F 55% 29.77 in 10.0 mi WSW 5.8 mph - N/A   Clear
10:35 PM 30.2 °F 24.3 °F 15.8 °F 55% 29.77 in 10.0 mi WSW 5.8 mph - N/A   Clear
10:55 PM 30.2 °F 22.6 °F 15.8 °F 55% 29.77 in 10.0 mi SW 8.1 mph - N/A   Scattered Clouds
11:15 PM 30.2 °F 21.3 °F 15.8 °F 55% 29.76 in 10.0 mi WSW 10.4 mph - N/A   Overcast
11:35 PM 30.2 °F 20.2 °F 15.8 °F 55% 29.75 in 10.0 mi WSW 12.7 mph 18.4 mph N/A   Overcast
11:55 PM 30.2 °F 22.6 °F 15.8 °F 55% 29.75 in 10.0 mi West 8.1 mph 17.3 mph N/A   Mostly Cloudy